Location: Mittersill
(44.1801°N, 71.7142°W)
Time: 03:53:04
(UTC+00:00)

CSL-04 Rocket - Pass Details

Date: 10 September 2024
Orbit: 804 x 859 km, 98.7° (Epoch: 04 October)

Event Time Altitude Azimuth Distance (km) Brightness Sun altitude
Exits shadow 23:46:53 - 131° (SE) 2,739 5.8 -8.1°
Reaches altitude 10° 23:47:45 10° 127° (SE) 2,426 5.5 -8.3°
Maximum altitude 23:52:28 32° 66° (ENE) 1,368 4.4 -9.1°
Drops below altitude 10° 23:57:09 10° 4° (N) 2,412 6.2 -9.9°
Sets 23:59:41 0° 355° (N) 3,342 7.1 -10.3°
